COSMOS 1275 DEB, 42171

Orbit data source: Space-Track

COSMOS 1275 DEB, 42171 is space debris in LEO originally from a launch on Thu, 04 Jun 1981 UTC launched from the Plesetsk Missile And Space Complex (PKMTR). Debris objects in space refer to the collection of defunct objects orbiting the Earth. Examples of debris include non-operational satellites, rocket bodies, and fragments generated from explosions, collisions, or faulty payload assembly.

Loading next visibility...
Identifier
42171, 1981-053SK
Orbit
LEO
Country
Flag of CISCIS
Related business
Manufacturer
Unknown
Mission
Spacecraft
Bus & Motor
Unknown
Mass
Unknown
Launch date (UTC)
1981-06-04 (45 years ago)
Launch vehicle
Unknown
Launch site
Plesetsk Missile And Space Complex (PKMTR)
Object type
Payload
Rocket body
Debris
Shape & HBR
Unknown shape, 0.1 m
Radar Cross Section
Small (<0.1 m²)

Expand to show TLE details & history
Last TLE update: 1 day ago

TLE from 1 day ago
0 COSMOS 1275 DEB
1 42171U 81053SK  26036.53638918  .00007302  00000-0  35992-2 0  9994
2 42171  83.0817 330.7780 0043756  37.3390 323.0817 14.16892404 86694
Epoch: 2026-02-05T12:52Z
TLE epoch observation values (Epoch: 2026-02-05T12:52:24.025Z)
Latitude
0.00002°
Longitude
1.99069°
Altitude
813.652 km
Speed
7.459 km/s
True Right ascension
22h 03m 06s
True Declination
0° 00' 00"
Sunlit
Object was in daylight at epoch
Visualization orbit readout
Latitude
Unknown
Longitude
Unknown
Altitude
Unknown
Speed
Unknown
Apparent Right ascension
Unknown
Apparent Declination
Unknown
Sunlit
N/A
Visualization observer readout
Local Sidereal Time
15:40:24
Azimuth
Unknown
Elevation
Unknown
Doppler factor
Unknown
Orbital elements
Apogee altitude
864.52 km
Perigee altitude
801.414 km
Semi-major axis
7,211.104 km
Eccentricity
0.00438
Inclination
83.0817°
RAAN
330.778°
Arg. of periapsis
37.339°
True anomaly
322.7792°
Mean anomaly
323.0817°
Eccentric anomaly
322.93058°
Mean motion
3.54438 °/min
Orbital period
101.57 mins
BSTAR
0.0035992
Loading maneuver chart data...
Computing Atmospheric mass density...
Loading historical data...
Loading historical data...
Loading historical data...
Loading historical data...
Loading historical data...
Loading historical data...
Loading historical data...

Documentation

Showing up to 5 results
|